Location: Dackenheim
(49.5215°N, 8.1854°E)
Time: 05:46:56
(UTC+00:00)

Cosmos 2322 Rocket - Pass Details

Date: 19 May 2025
Orbit: 832 x 849 km, 71.0° (Epoch: 22 June)

Event Time Altitude Azimuth Distance (km) Brightness Sun altitude
Rises 21:05:14 0° 334° (NNW) 3,419 7.3 -14.0°
Reaches altitude 10° 21:08:25 10° 351° (N) 2,478 5.7 -14.3°
Maximum altitude 21:12:30 20° 37° (NE) 1,876 4.2 -14.7°
Drops below altitude 10° 21:16:33 10° 83° (E) 2,461 4.4 -15.0°
Enters shadow 21:18:18 - 95° (E) 2,955 4.7 -15.1°
